Printer-friendly version

IAU Minor Planet Center

Minor Planet Center

MPEC 2006-E14 : 2006 EH

The following Minor Planet Electronic Circular may be linked-to from your own Web pages, but must not otherwise be redistributed electronically.


Read MPEC 2006-E13 Read MPEC 2006-E15


M.P.E.C. 2006-E14                                Issued 2006 Mar. 4, 12:18 UT

     The Minor Planet Electronic Circulars contain information on unusual
         minor planets and routine data on comets.  They are published
   on behalf of Commission 20 of the International Astronomical Union by the
          Minor Planet Center, Smithsonian Astrophysical Observatory,
                          Cambridge, MA 02138, U.S.A.

                  Supported in part by the Brinson Foundation
                  Supported in part by the TABASGO Foundation
             Prepared using the Tamkin Foundation Computer Network

                              MPC@CFA.HARVARD.EDU
          URL http://cfa-www.harvard.edu/iau/mpc.html  ISSN 1523-6714

                                    2006 EH

Observations:
     K06E00H* C2006 03 02.36534 12 29 20.50 -02 38 50.9          21.3 V EE014691
     K06E00H  C2006 03 02.38258 12 29 19.45 -02 38 00.1          21.0 V EE014691
     K06E00H  C2006 03 02.39983 12 29 18.41 -02 37 11.4          21.3 V EE014691
     K06E00H  C2006 03 03.24908 12 28 31.86 -01 56 54.4          21.7 R EE014734
     K06E00H  C2006 03 03.26380 12 28 30.97 -01 56 12.0          20.8 R EE014734
     K06E00H  C2006 03 03.28425 12 28 29.94 -01 55 12.3          21.4 V EE014G96
     K06E00H  C2006 03 03.30289 12 28 28.80 -01 54 19.8          21.3 V EE014G96
     K06E00H  C2006 03 04.36834 12 27 28.00 -01 04 17.6          20.1 V EE014G96
     K06E00H  C2006 03 04.37494 12 27 27.61 -01 03 59.0          20.3 V EE014G96
     K06E00H  C2006 03 04.38148 12 27 27.21 -01 03 40.8          20.4 V EE014G96
     K06E00H  C2006 03 04.38797 12 27 26.78 -01 03 22.2          21.0 V EE014G96

Observer details:
691 Steward Observatory, Kitt Peak.  Observer R. S. McMillan.  0.9-m f/3
    reflector + CCD.
734 Farpoint Observatory.  Observer K. Dobbs.  Measurer G. Hug.  0.7-m
    reflector + CCD.
G96 Mt. Lemmon Survey.  Observers R. A. Kowalski, R. Kowalski.  Measurers
    E. C. Beshore, E. J. Christensen, G. J. Garradd, A. R. Gibbs, A. D. Grauer,
    R. E. Hill, R. A. Kowalski, S. M. Larson, R. H. McNaught.  1.5-m reflector
    + CCD.

Orbital elements:
2006 EH                                                  Earth MOID = 0.2932 AU
Epoch 2006 Mar. 6.0 TT = JDT 2453800.5                  MPC
M  21.52035              (2000.0)            P               Q
n   0.23575845     Peri.  280.11449     -0.02139326     -0.99743743
a   2.5951225      Node   170.29645     +0.99977046     -0.02126393
e   0.6059051      Incl.   23.89407     -0.00116216     +0.06831123
P   4.18           H   20.6           G   0.15           U   8
Residuals in seconds of arc
060302 691  0.0   0.7-    060303 734  0.2+  0.1+    060304 G96  0.1+  0.0
060302 691  0.0   0.7+    060303 G96  0.1-  0.4+    060304 G96  0.3+  0.1-
060302 691  0.1+  0.1+    060303 G96  0.1-  0.1+    060304 G96  0.0   0.3+
060303 734  0.2+  0.5-    060304 G96  0.3-  0.1-

Ephemeris:
2006 EH                  a,e,i = 2.60, 0.61, 24                  q = 1.0227
Date    TT    R. A. (2000) Decl.     Delta      r     Elong.  Phase     V
2006 02 24    12 34.58   -07 48.5    0.516    1.440   144.0    23.9    21.1
2006 03 06    12 25.89   +00 11.2    0.551    1.520   159.2    13.4    21.0
2006 03 16    12 15.80   +07 07.7    0.612    1.601   170.2     6.1    21.0
2006 03 26    12 06.55   +12 25.6    0.698    1.682   165.2     8.7    21.5
2006 04 05    11 59.67   +16 00.4    0.808    1.763   154.1    14.3    22.2

Timothy B. Spahr             (C) Copyright 2006 MPC           M.P.E.C. 2006-E14

Read MPEC 2006-E13 Read MPEC 2006-E15


Our Web policy. Index to the CBAT/MPC/ICQ pages.


Valid HTML 4.01!